[Iaude] MPEC U113: 2023 UX1 [a=1.50,e=0.56,i=23.2,H=26.0]
    mpec at marsden.cfa.harvard.edu 
    mpec at marsden.cfa.harvard.edu
       
    Thu Oct 19 15:47:49 EDT 2023
    
    
  
M.P.E.C. 2023-U113                             Issued 2023 October 19, 19:45 UT
     The Minor Planet Electronic Circulars contain information on unusual
         minor planets, routine data on comets and natural satellites,
         and occasional editorial announcements.  They are published
    on behalf of Division F of the International Astronomical Union by the
          Minor Planet Center, Smithsonian Astrophysical Observatory,
                          Cambridge, MA 02138, U.S.A.
			  
             Prepared using the Tamkin Foundation Computer Network
                              MPC at CFA.HARVARD.EDU
            URL https://www.minorplanetcenter.net/    ISSN 1523-6714
                                    2023 UX1                                    
Observations:
     K23U01X* C2023 10 18.26914 01 10 37.86 +01 15 27.6          19.2 GVEU113703
     K23U01X  C2023 10 18.27442 01 10 40.98 +01 12 39.3          19.3 GVEU113703
     K23U01X  C2023 10 18.27970 01 10 44.24 +01 09 53.1          19.1 GVEU113703
     K23U01X  C2023 10 18.28498 01 10 47.51 +01 07 03.4          19.1 GVEU113703
     K23U01X  C2023 10 18.31558501 11 04.916+00 51 02.79         19.4 GVEU113H01
     K23U01X  C2023 10 18.31883501 11 06.862+00 49 22.34         19.3 GVEU113H01
     K23U01X  C2023 10 18.32954501 11 13.235+00 43 52.21         19.4 GVEU113H01
     K23U01X  C2023 10 18.33760601 11 18.022+00 39 45.41         19.1 GVEU113H01
     K23U01X  C2023 10 18.38530 01 11 46.71 +00 15 53.3          19.4 GVEU113I52
     K23U01X  C2023 10 18.38555 01 11 46.86 +00 15 46.0          19.2 GVEU113I52
     K23U01X  C2023 10 18.38581 01 11 47.00 +00 15 38.5          19.4 GVEU113I52
     K23U01X  C2023 10 18.38606 01 11 47.18 +00 15 30.7          18.9 GVEU113I52
     K23U01X 0B2023 10 18.81478001 16 11.957-02 49 25.12         20.1 VZEU113M49
     K23U01X 0B2023 10 18.82116001 16 14.825-02 51 54.76         19.9 VZEU113M49
     K23U01X 0B2023 10 18.82753901 16 17.685-02 54 23.13         19.5 VZEU113M49
     K23U01X KB2023 10 18.87748 01 16 36.59 -03 17 20.8          19.6 GXEU113M45
     K23U01X KB2023 10 18.88020 01 16 37.75 -03 18 22.6          19.5 GXEU113M45
     K23U01X KB2023 10 18.88045301 16 42.30 -03 18 19.0          19.3 GXEU113958
     K23U01X KB2023 10 18.88282 01 16 38.90 -03 19 21.4                XEU113M45
     K23U01X KB2023 10 18.88641301 16 44.88 -03 20 34.7          19.2 GXEU113958
     K23U01X KB2023 10 18.89204801 16 47.31 -03 22 39.9          19.8 GXEU113958
     K23U01X KC2023 10 19.20760601 19 10.40 -05 10 59.7          19.8 GXEU113858
     K23U01X KC2023 10 19.21372301 19 12.62 -05 12 56.8          20.1 GXEU113858
     K23U01X KC2023 10 19.22097001 19 15.22 -05 15 14.3          20.3 GXEU113858
     K23U01X  C2023 10 19.22565801 19 18.874-05 16 39.90         20.1 GVEU113654
     K23U01X  C2023 10 19.22966701 19 20.310-05 17 55.71         20.1 GVEU113654
Observer details:
654 Table Mountain Observatory, Wrightwood-PHMC.  Observers N. Evans, P. Choi,
    N. Saini, C. Zhai, R. Trahan, M. Shao.  1.0-m Reflector + CCD.
703 Catalina Sky Survey.  Observer G. J. Leonard.  Measurers E. C. Beshore, D.
    Fay, J. B. Fazekas, D. C. Fuls, A. R. Gibbs, A. D. Grauer, H. Groeller, J.
    K. Hogan, R. A. Kowalski, S. M. Larson, G. J. Leonard, D. Rankin, R. L.
    Seaman, F. C. Shelly, K. W. Wierzchos.  0.68-m Schmidt + 10K CCD.
858 Tebbutt Observatory, Edgewood.  Observer F. B. Zoltowski.  0.51-m f/8.1
    Schmidt-Cassegrain + CCD.
958 Observatoire de Dax.  Observer P. Dupouy.  0.50-m f/4.5 Reflector + CMO.
H01 Magdalena Ridge Observatory, Socorro.  Observers W. H. Ryan, E. V. Ryan.
    Measurer W. H. Ryan.  2.4-m f/8.9 Ritchey-Chretien + CCD.
I52 Steward Observatory, Mt. Lemmon Station.  Observer G. J. Leonard.
    Measurers E. C. Beshore, D. Fay, J. B. Fazekas, D. C. Fuls, A. R. Gibbs,
    A. D. Grauer, H. Groeller, J. K. Hogan, R. A. Kowalski, S. M. Larson, G.
    J. Leonard, D. Rankin, R. L. Seaman, F. C. Shelly, K. W. Wierzchos.  1.0-m
    f/2.0 prime focus + CCD.
M45 Starhopper Observatory, Sfantu Gheorghe.  Observer F. Ursache.  0.41-m
    f/7.5 reflector + CMO.
M49 IAS Remote Observatory, Hakos.  Observers D. Husar, M. Junius.  Measurer
    D. Husar.  0.25-m f/4.5 reflector + CMO.
Orbital elements:
2023 UX1                                                 Earth MOID = 0.0167 AU
Epoch 2023 Sept. 13.0 TT = JDT 2460200.5                Veres                   
M  10.43417              (2000.0)            P               Q                  
n   0.53393255     Peri.   90.80925     +0.38066916     +0.91116960             
a   1.5047989      Node   203.58677     -0.92426494     +0.38021083             
e   0.5591221      Incl.   23.20665     +0.02872840     +0.15877560             
P   1.85           H   26.01          G   0.15           U   8                  
Residuals in seconds of arc
231018 703  0.8+  0.7+    231018 I52  0.1+  0.1-    231018 M45  0.0   0.7-
231018 703  0.6-  0.2+    231018 I52  0.1-  0.1+    231018 958  0.5-  0.0
231018 703  0.3+  1.3+    231018 I52  0.4+  0.2-    231018 958  1.2-  1.3+
231018 703  1.5+  1.6-    231018 M49  0.1-  0.5-    231019 858  0.4-  0.1+
231018 H01  0.3-  0.0     231018 M49  0.1-  0.8-    231019 858  0.1-  0.4-
231018 H01  0.2-  0.1+    231018 M49  0.3+  0.5-    231019 858  0.1+  0.2-
231018 H01  0.2-  0.1-    231018 M45  0.3+  0.5-    231019 654  0.1+  0.0
231018 H01  0.1-  0.1+    231018 M45  0.1-  0.9-    231019 654  0.0   0.0
231018 I52  0.0   0.2-    231018 958  0.4+  1.4+
Ephemeris:
2023 UX1                 a,e,i = 1.50, 0.56, 23                  q = 0.6634
Date    TT    R. A. (2000) Decl.     Delta      r    Elong.  Phase     V
2023 09 19    13 44 18.1 +25 38 06   0.3282  0.7713    37.6   127.3    28.5
...
2023 10 04    13 58 36.6 +31 32 03   0.1411  0.8979    40.5   133.7    27.6
...
2023 10 12    14 28 20.1 +44 51 06   0.04720 0.9720    55.1   122.6    24.4
...
2023 10 18    01 07 11.5 +03 53 21   0.03236 1.0287   172.3     7.4    19.2
2023 10 19    01 17 33.4 -03 59 06   0.04308 1.0381   165.8    13.6    20.0
2023 10 20    01 23 47.8 -08 38 58   0.05436 1.0476   161.0    18.0    20.7
...
2023 10 26    01 37 30.5 -18 04 24   0.1256  1.1041   149.3    27.4    22.9
...
2023 11 03    01 42 47.1 -20 29 19   0.2242  1.1786   142.8    30.6    24.4
...
2023 11 18    01 48 53.4 -20 04 33   0.4195  1.3136   133.6    33.0    26.1
M. P. C. Staff               (C) Copyright 2023 MPC           M.P.E.C. 2023-U113
    
    
More information about the Iaude
mailing list